Torna al catalogo

STARLINK-36145

AttivoComunicazioniVLEO
NORAD 66983·PAYLOAD·🇺🇸 United States

Lanciato Dec 8, 2025 da Cape Canaveral Space Force Station

Loading…

Prossimi Passaggi (prossime 24 ore)

TLE

AggiornatoSource: CelesTrak SupGP

Epoca: Sep 14, 2026, 14:34 UTC

1 66983C 25288AA  26257.60743056 -.00038766  00000+0 -14044-2 0  2573
2 66983  43.0045  36.6874 0001448 274.4694 251.1820 15.27592129    10

Traccia STARLINK-36145 in tempo reale con AllMySat

Download on the App Store